Location: Alafon
(8.4500°N, 4.2333°E)
Time: 22:52:05
(UTC+00:00)

Explorer 7 - Pass Details

Date: 24 July 2021
Orbit: 484 x 676 km, 50.3° (Epoch: 18 September)

Event Time Altitude Azimuth Distance (km) Brightness Sun altitude
Rises 16:29:49 0° 309° (NW) 2,988 11.8 21.6°
Reaches altitude 10° 16:32:17 10° 301° (WNW) 2,089 11.6 21.0°
Maximum altitude 16:36:45 37° 234° (SW) 1,043 8.9 19.9°
Drops below altitude 10° 16:41:14 10° 167° (SSE) 2,095 9.5 18.9°
Sets 16:43:44 0° 159° (SSE) 2,997 10.2 18.3°
